Flag for U.S.A. Weather past 2 weeks in Hayward, California, U.S.A.

Now
67 °F

Sunny.


Feels Like: 67 °F
Forecast: 61 / 82 °F
Wind: 12 mph from Northwest

Location: Hayward Air Terminal

Current Time: Jul 29, 2014 at 8:44:48 PM

Latest Report: Jul 29, 2014 at 7:54 PM


Visibility: 10 mi

Pressure: 30.01 "Hg

Humidity: 76%

Dew point: 59 °F

Location of HaywardLocation

Historic Weather in Hayward — Graph

°F

Hayward temperature yesterday

Maximum temperature yesterday: 77 °F (at 12:54 PM)
Minimum temperature yesterday: 60 °F (at 1:54 AM)
Average temperature yesterday: 67 °F

Past Weeks' High & Low Weather Summary

 TemperatureHumidityPressure
High93 °F (Jul 25, 1:54 PM)100% (Jul 15, 1:54 AM)30.17 "Hg (Jul 15, 1:54 AM)
Low58 °F (Jul 15, 1:54 AM)26% (Jul 25, 1:54 PM)29.85 "Hg (Jul 25, 5:54 PM)
Average69 °F75%30.00 "Hg
* Reported Jul 14 6:54 PM — Jul 29 6:54 PM, Hayward, Weather by CustomWeather, © 2014

Note: Actual official high and low records may vary slightly from our data, if they occured in-between our weather recording intervals... More about our weather records

Advertising

Hayward weather history for previous 24 hours

 ConditionsComfort  
Time TempWeatherWind HumidityBarometerVisibility
6:54 PM
Jul 29
74 °FSunny.10 mph53%30.00 "Hg10 mi
5:54 PM75 °FSunny.13 mph55%30.00 "Hg10 mi
4:54 PM76 °FSunny.13 mph54%30.01 "Hg10 mi
3:54 PM78 °FSunny.14 mph50%30.01 "Hg10 mi
2:54 PM80 °FSunny.14 mph45%30.03 "Hg10 mi
1:54 PM81 °FSunny.13 mph44%30.04 "Hg10 mi
12:54 PM77 °FSunny.14 mph54%30.06 "Hg10 mi
11:54 AM74 °FSunny.9 mph62%30.06 "Hg10 mi
10:54 AM73 °FSunny.3 mph64%30.07 "Hg10 mi
9:54 AM68 °FSunny.6 mph78%30.08 "Hg8 mi
8:54 AM68 °FSunny.No wind76%30.08 "Hg10 mi
7:54 AM65 °FSunny.6 mph85%30.08 "Hg10 mi
6:54 AM60 °FClear.3 mph96%30.07 "Hg9 mi
5:54 AM60 °FClear.5 mph96%30.06 "Hg9 mi
4:54 AM62 °FClear.5 mph90%30.06 "Hg9 mi
3:54 AM62 °FClear.5 mph90%30.07 "Hg10 mi
2:54 AM63 °FClear.6 mph90%30.07 "Hg10 mi
1:54 AM63 °FClear.5 mph87%30.06 "Hg10 mi
12:54 AM63 °FClear.5 mph87%30.07 "Hg10 mi
11:54 PM
Jul 28
64 °FClear.5 mph84%30.07 "Hg10 mi
10:54 PM62 °FClear.5 mph90%30.07 "Hg10 mi
9:54 PM65 °FClear.6 mph78%30.07 "Hg10 mi
8:54 PM66 °FSunny.9 mph75%30.05 "Hg10 mi
Weather by CustomWeather, © 2014

See weather overviewHow to use our weather pages